Theta_e
315 319 320 320 320 321 323 325 327 326 323 320 319 321 320 322 321 321 320 320 322 320 319 320 321 323 323 322 321 325 327 326 328 330 336 340 339 339 340 340 339 337 337 336 333 332 333 330 328 332 334 335 336 335 335 334 334 334 334 332 330 330 329 328 328 327 325 323 324 322 320 321 322 320 318 315 313 312 309 309 310 315 323 327 327 325 325 327 326 323 316 308 308 309 308 308 307
315 319 320 320 319 322 326 326 326 324 320 318 320 321 320 321 322 322 322 321 322 320 320 319 320 322 321 320 320 324 328 328 326 329 336 338 339 339 339 340 339 338 338 336 334 332 333 331 329 332 334 335 335 335 335 335 334 334 334 331 328 327 327 327 328 326 324 323 322 320 321 323 322 320 318 315 313 311 310 315 318 322 326 328 328 326 327 328 325 319 311 307 306 307 307 307 307
315 319 320 320 321 323 326 326 324 322 318 318 318 320 321 321 323 323 322 321 321 320 320 319 320 321 320 321 321 323 329 331 327 327 335 337 337 338 338 339 339 338 338 337 334 331 332 331 329 331 334 335 335 335 336 335 335 334 334 331 327 325 326 327 327 325 324 323 321 321 322 324 323 320 318 315 313 310 310 318 322 323 325 326 327 326 326 326 323 315 309 307 307 308 308 307 308
316 320 321 323 327 326 327 328 325 321 317 318 317 320 322 323 323 322 320 320 320 320 321 321 322 321 321 324 321 325 330 332 329 325 333 336 335 336 337 337 339 338 338 338 335 333 331 330 329 329 332 334 335 335 335 335 335 333 332 331 327 325 326 327 326 325 324 323 321 322 323 324 324 320 319 317 313 310 309 317 323 324 325 325 325 326 325 321 318 313 307 307 307 307 308 308 308
316 320 322 324 328 327 326 325 323 321 318 319 319 320 322 322 322 320 320 320 320 320 321 321 323 320 319 323 322 326 330 330 330 326 330 337 336 333 334 337 339 338 338 338 337 336 332 329 328 328 329 332 334 334 335 334 334 332 330 329 326 325 325 326 326 325 324 323 322 323 324 325 325 321 319 319 314 310 308 316 323 324 325 326 326 327 326 320 312 309 307 307 307 307 307 307 308
318 321 322 322 325 325 325 322 320 320 319 321 320 320 321 321 322 320 320 320 319 321 320 321 321 320 321 323 323 326 329 329 330 330 331 337 336 332 334 336 339 339 338 339 338 337 335 331 329 328 328 330 332 334 334 334 333 331 328 326 324 324 324 325 326 325 324 324 323 325 325 325 325 322 319 320 317 311 307 311 318 320 323 325 326 326 325 319 310 306 307 307 307 307 307 307 307
319 323 323 323 325 324 326 324 321 321 320 321 321 319 321 321 321 320 319 319 318 319 319 321 319 320 324 323 323 325 328 327 326 329 328 332 334 331 333 336 339 339 339 340 339 338 336 333 329 328 327 329 331 333 333 333 333 331 328 324 322 323 323 325 326 325 325 324 324 325 326 325 324 323 320 321 320 314 308 307 310 315 318 319 320 320 317 312 307 306 307 307 306 307 306 306 306
320 324 324 325 327 325 326 325 321 322 320 320 321 319 320 320 321 320 319 319 318 319 318 319 318 319 321 321 326 324 322 322 322 324 323 325 330 330 332 336 339 339 339 340 339 338 337 334 330 328 327 328 330 332 332 334 333 331 327 323 321 322 324 325 325 325 324 324 324 325 326 325 323 322 320 320 321 318 311 307 306 307 309 309 310 310 308 306 306 306 306 305 305 305 305 305 305
321 324 324 325 327 325 323 323 321 321 320 320 320 320 320 319 320 319 319 319 318 319 318 318 319 319 319 321 327 324 317 319 319 320 320 321 328 330 332 337 339 339 339 339 338 338 338 335 331 329 328 327 329 331 332 333 333 331 327 321 319 320 323 325 325 324 324 323 324 324 325 325 323 322 320 320 321 320 314 309 306 305 304 305 304 304 305 305 305 305 305 306 306 305 305 305 304
321 323 323 325 326 323 321 321 322 321 320 320 319 319 319 319 320 320 318 318 318 319 320 319 319 318 318 322 326 324 319 316 316 317 317 319 327 329 330 336 339 339 339 339 338 338 337 335 332 331 329 328 329 331 332 332 332 331 326 320 318 319 321 323 324 324 324 323 323 323 324 324 323 322 320 320 321 320 317 312 308 306 305 305 305 306 306 307 307 309 311 312 312 311 310 308 306
323 321 322 326 324 321 320 321 322 322 320 319 319 319 319 319 319 320 319 318 318 319 319 318 318 318 317 323 326 325 319 315 315 316 316 318 324 328 330 335 338 339 339 338 338 337 337 335 334 333 331 330 329 330 332 331 331 331 327 321 319 319 320 321 323 323 324 323 323 324 324 324 323 323 321 320 321 321 318 315 311 309 308 309 310 311 312 313 314 316 317 317 317 316 314 312 309
325 324 323 324 323 322 321 322 322 321 321 319 319 319 319 319 319 319 319 318 317 319 319 317 319 319 317 322 325 324 318 315 315 314 315 317 319 326 330 333 337 339 339 339 338 338 337 336 335 335 333 332 332 331 332 331 331 331 328 325 322 320 320 321 322 324 325 324 324 326 325 324 324 323 322 321 322 322 320 317 315 314 313 313 314 316 317 318 319 319 319 318 318 318 317 314 311
326 327 324 323 325 325 322 322 322 321 322 320 319 319 319 319 318 318 318 318 317 317 318 318 318 318 318 323 324 322 318 315 314 314 315 316 316 322 328 331 335 338 338 339 338 337 337 337 336 336 334 334 334 333 333 331 331 332 331 330 328 324 322 322 322 323 325 325 325 327 326 325 324 324 324 323 323 322 321 319 317 317 316 316 317 318 319 320 320 319 319 319 319 318 318 316 313
324 325 325 325 327 326 322 323 322 321 321 320 319 318 319 318 318 318 317 317 317 318 318 317 317 317 317 322 323 322 319 315 314 314 314 315 315 318 323 328 333 336 337 338 338 337 337 337 337 337 336 335 335 334 334 333 332 332 332 332 332 329 326 324 323 323 326 326 324 326 326 325 324 324 324 323 324 323 323 321 319 318 319 319 319 320 320 320 320 320 320 320 320 319 318 318 314
323 323 326 326 326 324 323 323 323 321 320 319 319 318 318 318 318 318 317 317 317 318 319 317 317 317 317 321 323 322 320 315 313 314 313 314 314 315 317 322 331 333 335 338 337 336 336 336 337 337 337 336 335 335 335 334 333 332 332 332 332 331 330 328 325 324 326 326 324 325 325 324 324 323 323 323 324 325 324 323 321 319 319 320 320 321 321 321 321 320 320 320 320 319 319 318 316
321 323 326 324 323 323 322 322 323 322 320 318 318 318 318 317 317 317 317 317 318 318 317 317 316 316 318 322 323 321 319 315 314 314 313 314 314 315 314 317 326 331 332 335 334 335 335 335 335 336 338 337 337 336 335 335 334 333 333 332 332 332 332 331 328 326 326 326 325 325 324 324 324 323 322 322 323 326 326 325 323 321 320 320 320 321 321 321 321 321 321 320 320 320 319 318 317
319 323 326 322 322 322 322 322 322 320 319 318 318 318 318 317 317 316 317 317 317 317 316 317 316 316 317 319 319 318 318 316 314 314 314 314 314 314 314 314 321 327 330 330 330 330 332 334 335 336 338 338 338 337 336 336 334 334 334 333 332 332 333 333 331 329 328 327 326 326 324 324 325 324 323 322 323 324 326 326 324 323 322 321 321 321 321 321 322 322 321 321 321 320 319 318 318
320 324 324 321 322 323 322 322 320 321 319 317 317 318 318 317 316 316 316 316 316 317 317 316 316 316 315 316 316 315 316 315 315 314 314 314 315 315 315 314 316 322 325 327 328 326 327 331 333 335 337 338 337 338 337 336 335 335 335 334 333 332 333 333 333 332 330 329 328 327 325 325 326 327 325 324 323 323 325 326 325 325 324 322 321 321 321 321 322 322 322 321 321 320 319 318 318
321 323 322 322 323 321 320 320 319 320 319 317 317 317 317 318 316 316 316 316 316 316 316 317 316 316 315 315 315 315 315 315 315 314 314 314 315 315 315 315 315 317 318 321 324 323 322 326 330 332 335 337 336 336 337 336 336 336 335 335 335 333 333 333 333 333 331 330 330 329 327 327 328 328 328 328 326 323 323 325 326 325 325 324 322 322 321 321 321 322 322 322 321 321 320 319 318
320 323 323 322 321 319 319 319 318 319 319 318 317 317 317 317 317 316 316 316 316 316 316 316 317 317 316 315 315 315 315 315 315 315 315 314 314 315 314 315 315 315 315 316 320 320 320 321 325 328 330 334 335 335 336 337 337 336 336 336 335 335 334 334 334 334 333 331 331 330 329 329 330 329 329 329 327 326 324 324 326 326 326 325 324 323 322 322 322 322 322 322 322 321 320 320 319
319 320 321 320 318 319 318 318 317 317 319 318 318 317 317 317 317 317 316 316 316 316 317 316 317 317 317 317 316 316 315 315 315 315 315 315 314 314 314 315 315 315 315 315 317 318 318 319 323 325 326 329 332 333 333 336 337 336 336 336 336 335 334 334 334 334 334 333 332 331 331 330 331 330 330 329 328 327 326 324 325 326 326 326 325 324 323 322 323 323 322 322 322 321 321 320 319
318 318 318 317 317 318 317 316 317 317 318 318 317 317 317 317 317 317 317 317 317 318 318 317 317 318 317 317 317 316 316 315 315 315 315 315 315 315 314 314 314 314 315 315 315 315 315 317 320 323 324 325 328 329 330 332 336 337 336 335 335 335 334 334 334 334 334 334 333 332 332 332 332 330 330 330 329 327 326 325 324 325 326 326 326 325 324 323 323 323 323 323 322 322 321 320 319
318 318 317 316 317 318 317 316 316 317 318 318 317 317 317 317 317 317 317 317 317 318 318 318 318 318 318 317 317 317 316 316 315 315 315 315 315 315 315 315 315 314 315 315 314 314 314 315 316 318 322 323 325 328 330 331 332 335 336 335 334 334 334 334 335 334 334 334 333 333 332 332 332 331 330 330 329 327 327 326 325 325 326 327 327 325 325 324 324 324 324 323 323 322 321 320 319
317 317 317 316 317 316 316 316 315 316 317 317 317 317 317 317 317 317 317 317 317 318 318 318 317 317 317 317 317 317 316 316 316 315 315 315 315 315 315 316 318 317 317 317 315 315 314 314 314 314 317 320 323 327 331 331 330 332 335 335 334 334 334 333 333 334 334 334 333 333 332 332 332 331 331 330 329 328 328 327 327 326 326 326 326 326 325 325 325 325 324 324 323 323 321 320 318
316 317 317 316 317 316 315 315 315 315 316 316 316 317 317 317 317 317 317 318 317 317 317 317 317 317 316 316 316 316 316 316 316 316 315 315 315 315 315 316 319 320 318 317 316 315 314 314 314 313 314 317 321 325 329 332 331 330 333 334 333 333 334 333 333 333 334 334 334 333 332 332 332 332 331 330 329 329 328 328 328 327 326 326 326 326 326 325 325 325 324 324 324 323 321 320 317
317 317 317 317 316 315 315 315 315 316 316 316 316 317 317 317 317 316 317 317 317 317 317 317 317 316 316 316 316 316 316 316 315 316 315 316 315 315 315 315 318 320 318 317 316 315 314 314 313 314 314 314 317 320 324 328 330 330 330 331 332 332 332 332 333 332 333 333 334 333 333 332 332 332 331 331 330 329 329 328 328 328 327 327 326 326 326 326 326 326 324 323 324 323 322 320 317
317 317 317 317 317 315 316 316 315 316 316 316 316 317 317 316 317 317 318 318 317 317 317 317 317 317 316 316 316 315 316 316 316 316 316 316 315 315 315 315 316 318 318 317 316 316 315 314 313 313 314 314 315 315 316 321 326 328 326 325 329 332 331 331 331 331 332 333 333 333 333 333 332 332 332 331 330 330 329 329 328 328 328 328 327 327 327 326 326 326 324 323 323 324 323 321 317
318 318 317 317 317 316 316 317 316 316 317 316 316 317 317 317 317 317 318 318 318 317 317 317 317 317 317 316 316 316 316 316 316 316 316 316 316 316 315 315 315 316 316 315 315 316 315 314 313 313 313 314 314 314 314 315 319 323 322 318 321 329 331 332 331 330 331 332 333 333 333 333 333 332 332 331 331 330 330 329 328 327 327 328 328 328 328 327 325 325 324 322 322 323 324 322 318
318 318 318 317 317 317 316 317 317 316 317 317 316 318 318 318 318 318 317 318 318 318 318 318 317 317 317 317 317 317 317 316 317 316 316 316 317 316 316 316 315 315 315 315 315 315 315 314 314 313 313 313 313 313 313 313 315 317 319 316 315 321 326 329 328 326 329 332 331 330 329 331 333 332 331 331 331 330 330 329 329 328 327 327 328 328 328 327 325 325 324 322 320 321 324 323 320
318 318 318 319 317 317 318 318 318 317 317 317 316 319 320 318 318 318 317 318 318 318 318 318 318 318 318 318 317 317 317 317 317 317 317 317 317 317 317 316 315 315 315 315 315 314 314 314 314 314 313 313 313 313 312 312 313 314 316 318 314 314 318 320 320 319 323 327 326 327 326 329 333 332 331 331 330 330 330 330 329 329 328 327 327 327 327 327 325 325 324 322 320 321 322 323 320
318 318 318 320 319 318 319 318 318 317 317 317 317 318 320 318 318 319 318 318 318 318 318 318 318 318 318 318 318 318 318 318 318 318 317 317 317 317 317 317 316 316 315 315 315 314 314 314 314 314 314 314 313 313 313 312 313 313 316 319 316 313 314 316 316 315 319 324 325 328 329 330 332 332 331 330 329 329 328 329 330 329 329 328 327 327 327 327 325 324 324 322 321 320 322 323 320
318 318 319 320 319 319 319 318 318 317 316 316 317 318 319 318 318 319 319 319 318 318 318 318 318 318 319 319 319 319 318 318 318 318 318 317 317 317 317 317 317 317 316 316 315 314 314 315 314 314 314 314 313 313 313 312 313 312 313 317 316 314 314 316 315 317 325 330 327 329 332 331 332 331 331 329 328 327 325 328 330 328 328 328 328 328 328 327 325 324 323 322 322 321 321 322 321
319 319 319 320 320 319 319 318 317 317 317 316 317 318 319 318 318 318 319 319 318 318 318 318 318 319 319 319 319 319 319 318 318 318 318 318 318 318 317 318 317 317 317 316 316 315 315 315 314 315 314 314 313 313 313 312 313 313 312 314 314 313 313 314 314 318 328 333 329 330 332 332 331 331 329 329 327 324 323 328 329 325 325 327 328 328 328 328 325 324 323 321 321 321 321 322 321
320 319 319 320 320 319 318 318 317 317 317 317 318 318 318 318 317 318 318 318 318 318 318 318 318 319 319 319 319 319 319 319 319 319 319 319 319 318 318 317 317 317 317 317 316 316 315 315 315 314 314 314 313 313 313 313 313 313 313 313 313 313 313 313 314 317 325 332 331 332 334 333 331 330 329 327 324 321 323 328 328 325 325 326 327 328 327 327 326 324 324 322 321 321 321 322 321
320 320 318 319 320 318 317 318 317 317 317 317 318 317 317 318 317 317 318 318 318 318 318 318 318 319 318 319 319 319 319 319 318 318 318 318 319 319 318 318 318 317 317 317 316 316 315 315 315 315 314 314 313 313 313 313 313 313 313 312 312 313 313 313 313 314 320 327 329 329 331 332 332 330 328 326 323 320 323 328 329 327 325 325 326 327 328 327 325 323 323 322 322 320 321 321 321
317 319 319 318 318 318 317 318 316 316 317 317 318 317 317 317 318 317 318 319 318 318 318 318 318 319 318 319 318 318 318 318 317 317 317 317 317 317 318 318 318 317 317 317 317 316 316 316 316 315 315 314 314 313 313 313 313 313 313 312 312 312 313 313 313 313 315 320 325 325 324 326 327 326 324 324 324 323 325 329 328 327 327 325 326 327 329 328 325 323 322 322 322 321 320 320 319
316 318 319 319 318 318 317 317 316 315 317 317 317 317 316 317 318 317 317 318 318 317 318 318 318 319 319 319 319 318 318 317 317 317 317 317 317 316 317 318 318 318 318 318 317 317 317 317 316 316 315 315 314 314 314 313 313 313 313 313 313 312 313 313 313 314 313 313 318 323 322 319 319 321 323 325 327 327 327 325 324 324 326 325 326 327 328 327 324 323 322 321 321 322 321 319 318
316 318 319 319 320 319 317 317 316 314 317 318 317 317 316 316 317 317 317 317 317 317 317 317 317 318 318 318 319 318 318 318 317 317 318 318 317 317 316 316 317 318 318 318 318 318 318 317 317 317 316 315 315 315 314 314 313 313 313 313 313 313 313 313 313 313 314 312 313 318 323 321 318 321 326 327 327 327 324 322 320 321 325 326 327 327 327 326 324 323 322 320 320 321 321 320 319
317 318 319 320 322 320 317 317 316 315 317 318 317 316 316 315 316 316 316 316 317 317 317 317 317 317 318 318 318 319 318 319 318 318 318 318 318 317 317 317 316 316 317 317 317 317 317 317 317 317 317 316 316 315 315 314 314 313 313 313 313 312 312 312 313 313 313 313 312 314 320 321 321 324 328 327 327 326 323 322 321 321 325 327 327 326 325 325 324 323 322 320 320 320 319 319 319
320 320 319 321 322 320 317 316 316 316 316 317 317 318 317 316 318 317 316 316 316 316 317 316 317 317 318 318 318 319 319 319 319 319 319 319 319 318 318 317 317 317 317 316 317 317 316 317 317 317 317 317 316 316 315 315 314 313 312 312 311 312 312 311 312 313 312 312 312 314 317 320 323 326 328 328 328 326 325 324 322 321 324 325 325 325 325 325 324 322 321 320 321 320 319 318 317
321 323 320 320 321 320 319 318 318 317 317 319 320 321 321 321 321 321 320 318 317 317 317 317 318 318 318 318 318 318 319 319 319 319 320 319 319 319 318 318 318 317 317 316 316 316 316 316 317 317 317 316 316 316 316 315 314 314 313 312 312 311 311 311 311 312 313 312 313 315 318 322 325 326 328 329 327 326 325 324 322 322 323 323 323 324 323 324 324 323 321 320 321 320 319 319 316
319 323 324 321 319 321 322 321 321 318 318 320 321 322 325 322 320 321 319 319 319 319 319 319 319 318 318 318 318 318 318 318 318 318 319 320 320 320 319 319 318 317 317 317 316 316 316 316 316 316 316 316 316 316 316 315 314 314 313 312 312 312 311 311 311 312 313 312 314 316 318 320 323 325 328 327 325 326 325 324 323 323 323 323 323 323 323 323 323 323 322 321 321 319 319 319 317
316 322 326 323 321 323 322 321 320 318 318 320 320 320 321 317 315 316 316 316 317 318 319 319 319 319 319 319 319 319 319 319 318 318 318 318 319 318 318 318 317 317 316 316 316 316 315 315 315 315 315 315 315 315 315 315 314 313 313 313 312 312 311 311 311 312 313 314 315 316 317 319 320 321 323 324 325 326 325 324 324 324 324 324 323 323 322 322 322 322 321 320 320 319 318 319 317
319 323 325 322 322 323 322 321 321 320 321 323 322 320 320 318 316 317 316 316 316 317 318 318 317 319 319 319 320 320 321 320 319 318 317 317 317 317 317 317 316 316 316 316 316 316 316 316 316 315 315 315 315 315 314 314 314 313 313 312 311 311 311 311 311 312 313 315 316 317 318 320 321 321 322 324 326 326 325 324 324 324 324 323 322 321 321 320 320 320 320 320 320 319 319 318 317
323 324 323 323 324 323 322 321 321 322 322 323 324 321 321 321 319 320 320 319 318 318 320 320 317 318 318 319 321 321 321 319 318 318 318 318 318 317 317 316 316 316 316 317 317 317 317 316 316 316 315 315 315 314 314 314 313 313 312 312 311 311 310 310 311 312 313 315 317 318 319 320 322 324 325 326 326 325 325 324 324 324 323 322 322 321 320 320 319 319 319 319 319 319 319 318 316
321 322 323 324 324 323 322 321 321 322 320 321 327 324 318 317 317 319 322 320 319 320 321 321 318 318 320 320 320 320 318 318 317 318 318 319 318 318 318 317 318 318 318 318 318 318 317 317 317 316 315 315 315 314 314 314 313 312 312 312 311 311 310 310 310 311 312 315 318 318 318 320 323 325 325 325 325 325 325 324 323 323 322 321 322 320 319 319 319 320 319 318 319 319 318 318 316
319 322 324 322 322 322 322 322 321 321 319 320 327 325 317 315 316 320 321 320 321 320 319 321 321 321 321 319 318 317 317 317 317 317 317 318 318 318 318 319 319 319 318 318 318 318 318 318 317 317 316 315 315 315 314 313 312 312 312 311 311 310 310 310 310 311 312 315 318 318 318 320 323 324 324 324 325 325 324 323 322 322 321 321 321 320 319 317 318 320 319 318 319 319 318 317 316
320 323 322 321 322 322 321 322 322 321 319 320 325 324 318 315 317 321 321 320 321 320 318 322 324 323 320 319 318 318 318 317 317 317 317 317 318 318 318 319 319 319 319 319 319 319 318 318 317 317 317 316 315 315 314 313 312 312 311 311 311 310 310 310 310 311 312 313 317 319 319 320 322 322 321 322 324 325 324 322 322 322 321 321 320 319 318 317 318 319 319 319 318 317 317 316 314
323 322 320 320 321 322 323 324 325 324 319 320 323 322 319 316 315 319 318 317 319 319 319 321 322 321 320 320 319 319 319 318 317 317 317 317 317 317 317 318 318 318 319 318 318 318 318 317 317 317 316 316 315 315 314 313 312 312 311 311 311 310 309 309 310 310 311 312 316 319 319 319 321 320 319 321 324 324 323 322 321 321 321 320 319 318 318 318 317 318 319 318 317 316 316 314 312
322 321 321 322 319 320 322 322 325 325 321 320 320 320 321 318 316 318 317 317 318 317 317 318 318 319 318 318 319 319 319 319 318 317 317 317 316 317 317 317 317 317 318 318 318 318 317 317 317 317 316 316 316 316 315 314 313 312 311 311 311 310 309 309 309 310 310 310 314 318 319 320 320 318 319 322 324 323 322 322 321 321 320 319 318 318 318 318 317 318 319 318 316 316 315 312 310
319 319 320 321 319 318 319 319 322 325 323 319 317 320 324 321 319 319 317 316 317 317 318 318 318 318 318 317 317 317 317 317 318 317 317 317 317 316 317 317 317 317 316 317 317 317 317 317 317 316 316 316 316 316 315 314 313 312 311 311 311 310 309 309 309 310 309 310 313 316 318 319 319 318 319 321 322 322 322 322 321 321 319 318 318 317 317 318 318 318 318 317 316 315 313 311 310
318 318 319 321 320 316 316 319 320 321 320 320 320 323 324 320 317 316 315 315 315 315 316 318 318 318 317 317 316 315 316 316 317 318 317 317 317 317 317 317 317 317 317 317 317 317 317 317 316 316 316 316 315 315 315 314 313 312 312 312 311 310 309 309 309 309 309 311 314 316 317 317 319 320 320 320 321 321 321 321 321 320 318 316 317 317 318 318 318 317 317 316 315 314 312 310 310
319 319 320 321 321 316 317 320 319 317 317 318 320 321 318 315 314 315 315 316 315 314 314 315 317 318 317 316 316 315 316 316 317 318 317 318 317 317 318 317 317 318 318 318 318 318 318 317 317 316 316 316 316 316 315 315 314 314 313 313 311 310 309 309 309 309 309 310 313 315 316 317 319 320 321 321 321 321 320 320 320 319 317 316 316 316 317 318 317 316 316 315 313 311 309 309 309
322 322 319 319 321 319 317 318 319 319 317 316 316 315 315 313 314 318 318 316 317 317 316 315 314 316 317 316 316 316 316 316 316 317 318 318 318 318 318 317 317 317 318 318 318 318 318 318 317 317 316 316 316 316 316 315 315 314 313 313 312 310 310 309 309 309 309 310 312 314 316 318 319 320 319 319 320 320 320 320 319 318 316 315 315 315 317 317 317 316 315 312 309 305 305 306 307
320 321 318 318 321 322 319 316 317 318 317 317 317 316 315 314 313 315 316 316 318 319 319 318 315 315 317 316 317 317 317 318 318 318 318 318 318 318 319 318 317 317 318 318 318 318 318 317 317 317 316 316 316 316 316 316 315 315 314 313 312 311 310 310 309 309 309 309 311 313 314 317 319 318 318 319 319 319 320 319 319 317 315 314 314 314 316 317 316 315 313 308 303 301 302 303 304
316 317 318 320 321 321 321 318 316 317 316 316 317 316 316 315 314 315 316 317 318 317 319 321 318 316 317 316 318 319 319 320 319 318 317 317 317 318 318 318 317 318 318 318 318 317 317 316 316 316 316 316 316 316 317 316 316 315 315 314 313 312 311 310 309 309 309 309 310 311 314 316 317 317 318 318 318 317 318 319 318 316 314 314 314 314 315 316 316 315 309 302 299 299 300 302 303
317 317 319 321 319 319 321 320 318 318 317 316 316 316 315 314 314 316 317 317 318 318 321 322 319 317 317 318 318 319 320 320 318 317 317 317 317 318 318 318 317 318 318 318 317 317 317 317 317 317 317 316 316 316 316 316 316 316 315 315 314 312 311 310 310 309 309 309 309 311 314 316 317 317 318 318 316 316 318 318 317 315 313 314 314 315 315 315 316 313 305 298 298 298 299 301 302
316 315 317 318 318 319 320 319 318 318 319 318 318 318 317 315 316 317 316 317 318 319 320 320 318 316 317 317 317 319 320 318 317 316 316 316 316 317 318 318 318 318 318 317 317 317 317 318 318 318 318 317 317 317 317 316 316 316 315 315 314 313 312 310 310 309 309 308 309 310 313 315 317 317 318 317 316 316 317 317 316 314 313 313 315 315 315 315 315 310 300 296 297 297 298 299 300
Wind_Speed
5 7 6 4 5 3 3 2 3 3 2 2 5 3 2 3 3 4 5 5 4 6 7 7 7 7 5 3 3 10 13 8 3 2 3 14 19 14 15 16 13 13 11 12 12 11 10 9 12 14 14 12 11 11 11 10 9 9 9 8 7 8 7 7 7 8 8 9 9 10 12 13 14 14 14 13 12 12 12 11 11 13 15 16 17 17 15 14 14 14 15 15 15 14 15 15 16
6 7 6 3 4 3 4 4 1 3 3 4 4 4 4 2 1 4 7 5 5 6 6 7 6 6 5 4 2 6 12 11 8 9 14 22 22 17 18 16 13 14 10 11 11 11 11 9 12 14 14 13 12 11 11 10 9 9 8 7 7 7 7 6 7 7 8 8 9 10 12 12 13 14 13 13 12 12 12 12 13 15 16 17 17 16 15 13 12 13 16 17 16 17 17 17 18
7 7 6 2 4 4 6 2 2 4 2 5 3 3 4 3 5 8 9 9 10 9 7 7 6 5 2 3 5 4 6 9 10 13 20 19 18 20 18 15 14 13 10 11 11 11 11 10 11 14 14 13 12 11 11 10 9 9 7 6 6 6 6 6 6 6 7 8 9 11 11 11 13 13 13 13 12 13 13 13 15 16 16 17 15 14 14 12 12 14 16 17 17 18 18 18 19
8 7 6 1 5 4 4 2 3 3 3 4 3 3 3 6 8 9 10 11 11 8 7 6 5 4 2 3 6 5 7 8 7 9 19 13 11 20 19 17 16 13 11 10 10 11 12 11 11 13 14 13 12 11 10 10 8 7 6 5 6 6 6 6 6 6 7 8 9 10 10 11 12 13 13 13 13 13 13 13 16 17 16 16 15 15 13 12 14 16 17 17 18 18 18 19 19
7 7 4 1 3 2 2 2 2 3 4 2 4 3 4 9 8 8 10 10 9 7 7 5 4 4 4 4 5 4 6 7 7 7 18 14 10 18 19 20 17 14 13 10 11 10 11 11 11 12 13 14 12 11 10 9 8 6 6 6 6 6 6 5 6 6 6 7 8 9 9 10 11 12 13 13 13 13 12 13 16 17 16 15 15 16 14 13 15 17 18 18 18 17 18 19 19
7 4 2 2 4 4 3 2 1 5 3 3 4 3 6 9 10 11 11 11 8 7 7 5 4 4 4 5 3 5 5 5 9 10 17 17 14 17 19 21 17 14 13 11 11 10 11 12 11 11 13 14 12 11 10 9 8 6 6 7 7 7 6 5 6 6 6 7 7 8 8 9 10 11 13 13 13 13 12 13 14 15 16 14 14 14 13 15 17 19 19 18 17 18 18 19 19
8 3 2 4 5 3 3 2 3 5 3 5 5 4 7 10 13 13 11 9 5 7 7 6 5 2 4 5 3 4 5 5 7 10 15 17 17 17 19 20 15 13 13 11 11 11 11 12 12 11 12 14 12 11 10 9 8 7 7 7 8 7 7 6 6 6 5 6 6 6 7 8 9 10 12 13 13 13 13 12 12 13 14 14 14 14 14 16 18 18 18 17 17 18 18 18 18
8 3 2 2 2 2 3 1 5 4 2 4 6 5 9 12 14 11 7 7 4 6 6 5 3 1 3 5 4 2 5 7 6 8 13 14 16 18 20 17 13 12 12 12 11 11 11 12 12 11 12 13 13 12 10 10 8 7 7 8 8 7 7 6 6 6 5 5 6 6 6 7 8 10 11 12 13 13 13 13 12 13 14 14 15 16 16 17 17 18 18 17 17 18 18 18 18
6 2 1 1 2 2 2 2 5 4 2 3 5 6 11 12 12 10 6 7 6 7 8 6 2 2 3 6 7 2 4 7 5 6 10 10 15 18 19 15 12 12 12 12 11 10 11 12 13 12 12 12 13 12 11 10 8 8 7 8 9 8 6 6 6 5 5 5 5 5 5 6 7 9 10 11 12 13 13 13 13 13 14 16 16 17 17 17 18 18 17 17 18 18 18 18 18
3 4 2 1 2 3 3 3 4 4 4 5 6 6 9 9 9 9 7 8 8 8 9 6 4 2 1 7 10 2 2 5 5 7 10 11 15 17 17 16 13 12 12 12 11 11 11 12 13 12 12 12 12 12 11 10 9 8 8 8 9 9 7 6 6 5 4 4 4 4 5 5 6 8 9 10 11 12 12 13 13 14 15 16 16 17 18 18 19 18 18 18 19 18 18 18 18
3 5 3 2 3 4 2 4 5 4 5 5 7 8 8 8 7 7 8 9 8 8 8 5 3 3 2 7 11 5 3 5 7 8 11 12 17 17 17 18 16 14 13 12 11 11 11 14 14 13 12 11 11 11 11 11 9 8 8 9 9 9 7 6 5 5 4 3 3 4 4 5 5 7 8 9 10 11 11 12 13 14 15 15 16 17 18 19 19 19 19 19 19 18 18 17 18
3 4 2 2 4 1 2 3 5 5 6 4 5 8 8 8 6 5 6 8 8 7 7 5 2 4 3 4 8 8 5 6 9 10 11 12 16 18 17 18 19 17 14 14 13 12 12 14 14 13 13 12 11 11 11 11 11 9 8 8 9 9 8 7 6 5 5 3 3 4 4 4 5 6 8 8 9 10 10 11 12 13 14 15 16 17 18 19 19 19 19 19 19 18 17 17 17
3 2 3 2 5 1 2 2 5 4 4 5 6 9 10 9 7 7 6 6 9 6 7 7 4 2 1 6 8 10 8 8 10 10 12 13 14 18 19 20 21 19 17 16 15 14 13 14 15 14 14 13 12 11 11 11 11 11 10 9 8 9 8 8 7 6 5 4 3 4 4 4 4 5 7 7 8 8 9 10 11 12 13 14 15 16 17 18 18 18 18 19 19 18 17 16 16
4 5 1 3 3 2 2 2 2 2 2 4 10 13 11 8 7 7 8 6 5 6 10 9 4 2 2 6 8 10 12 11 10 11 13 14 15 18 20 22 23 21 19 18 17 16 15 15 16 16 15 14 13 13 12 11 10 11 11 10 9 9 8 8 8 8 7 6 4 4 4 3 3 4 5 6 6 7 8 8 9 10 11 12 13 14 15 16 16 16 17 18 18 17 16 16 15
4 6 3 2 2 1 1 2 0 0 2 4 11 15 11 7 7 6 5 4 6 9 12 8 5 3 1 3 8 12 13 12 11 12 13 14 15 18 20 21 24 23 19 18 19 18 17 16 17 17 16 15 14 14 13 12 11 11 11 11 10 10 9 9 9 9 9 7 5 4 3 3 3 2 3 4 5 6 6 7 7 8 9 10 11 12 13 14 14 15 16 16 17 17 16 15 15
4 4 2 2 2 1 1 2 1 1 2 4 10 15 9 6 8 5 2 5 7 9 8 6 6 4 2 6 11 11 10 11 12 13 14 14 14 17 18 19 24 25 22 19 19 20 20 18 18 18 17 16 16 15 14 14 13 12 12 11 11 11 11 10 10 10 9 8 7 5 4 4 4 3 3 3 4 5 5 5 6 6 6 8 8 9 11 12 12 13 14 15 15 16 16 14 13
3 2 1 1 3 2 3 3 3 2 3 5 11 14 8 5 7 5 4 5 6 6 5 5 6 7 4 4 9 7 6 10 14 15 15 14 14 16 17 18 24 26 25 22 21 20 21 21 20 20 19 18 18 17 16 15 14 14 13 13 13 12 12 12 11 11 10 10 8 7 6 6 5 5 4 4 4 5 5 5 5 5 5 6 6 7 8 9 10 10 11 13 14 14 15 14 12
3 1 2 3 4 2 2 3 3 5 6 6 11 14 8 6 8 7 5 5 5 4 5 6 6 7 9 7 6 5 4 9 15 16 16 16 16 16 16 17 21 25 26 25 24 22 21 22 22 22 20 19 19 19 18 16 15 15 15 14 14 14 14 14 13 12 12 12 10 9 8 7 7 6 5 5 5 4 5 5 5 4 4 5 6 6 6 7 7 8 9 10 12 13 13 13 11
3 1 2 4 1 3 5 8 7 5 5 9 11 12 8 7 11 9 5 7 9 6 6 9 9 9 11 12 11 9 7 9 14 16 16 17 18 17 17 17 19 22 23 24 25 24 22 22 23 24 23 21 20 19 18 17 16 16 16 16 16 16 15 15 14 14 14 13 12 11 10 9 9 8 7 6 5 5 5 6 5 5 4 4 5 6 6 6 6 7 8 8 9 10 11 11 10
3 2 2 2 1 5 11 14 10 7 4 7 10 8 5 8 10 9 5 6 9 9 9 11 13 14 14 14 14 13 12 11 13 15 16 17 18 19 19 18 19 19 20 21 24 24 22 22 23 24 25 24 22 20 19 17 16 17 17 18 18 17 17 16 16 16 16 15 13 13 11 11 11 10 8 8 7 6 6 6 7 6 5 5 5 6 7 7 6 7 7 7 7 8 9 10 9
2 1 1 3 5 4 9 11 8 5 4 5 9 5 3 7 7 8 6 4 5 9 12 13 15 18 18 16 15 15 15 14 13 14 16 16 18 19 20 19 19 19 19 20 22 23 22 22 23 24 24 25 25 24 22 20 17 18 19 18 19 19 18 18 17 17 17 16 15 14 13 13 13 12 10 10 9 9 7 7 8 8 7 6 6 6 7 7 7 7 8 7 5 6 7 8 8
1 1 3 6 7 4 5 6 6 6 3 5 8 3 3 8 5 6 7 4 3 3 7 10 10 13 16 17 16 14 15 16 15 15 15 16 16 18 20 20 20 21 22 22 22 22 22 22 23 24 25 25 26 26 24 22 20 19 19 19 19 20 19 19 18 18 18 17 16 16 16 15 15 14 13 13 12 10 9 8 8 9 9 8 7 7 8 8 8 8 8 7 5 5 5 7 7
2 1 5 7 6 4 3 2 5 5 3 3 3 1 3 6 3 7 11 10 6 2 2 5 4 4 8 12 14 13 13 14 15 16 16 16 16 17 19 21 21 21 22 23 23 23 22 21 22 23 26 27 26 26 24 23 23 22 20 19 19 20 20 19 19 19 19 19 18 18 18 16 16 16 15 15 14 11 11 10 10 10 9 9 8 7 8 9 9 8 7 7 6 5 4 7 7
3 0 5 5 6 6 2 2 4 3 3 2 1 1 1 3 3 4 11 15 13 9 9 8 6 3 3 7 10 11 11 11 13 14 15 17 17 16 18 20 21 22 22 23 24 24 22 21 21 22 23 26 26 25 24 24 26 26 24 22 20 20 21 20 19 20 20 20 19 19 18 17 18 17 16 16 14 13 13 13 12 11 10 10 9 9 10 11 9 6 6 7 6 6 5 6 8
4 1 6 4 5 5 2 3 4 2 1 2 1 3 5 5 3 5 12 16 15 15 15 15 14 10 7 8 10 11 12 12 12 13 14 16 17 18 18 20 22 23 24 24 24 25 22 21 22 22 22 23 24 24 25 26 27 27 27 27 24 22 22 21 20 20 21 21 20 20 20 20 20 19 18 17 15 14 15 15 13 11 10 11 12 12 13 11 8 6 5 6 6 7 6 5 7
2 5 8 6 6 5 4 5 3 3 1 1 2 6 6 5 3 8 16 19 17 15 14 16 17 16 14 13 14 15 15 16 15 14 14 15 17 20 20 20 22 25 25 25 25 25 24 23 23 23 22 22 23 24 25 28 29 28 28 28 28 27 25 23 22 21 22 22 22 22 22 20 21 21 20 18 17 16 16 16 14 12 12 13 14 15 14 12 10 7 5 5 7 7 6 4 6
3 8 8 7 7 5 4 4 4 3 1 1 2 5 5 5 2 6 12 11 12 15 15 16 17 17 17 16 16 17 18 18 18 17 17 17 18 20 21 22 23 25 26 26 25 25 26 25 24 23 23 22 24 26 25 27 30 30 28 27 30 31 29 26 24 23 23 23 24 23 22 21 22 22 21 20 19 18 18 18 17 15 15 17 17 15 14 14 12 9 7 7 7 7 7 5 5
4 8 8 6 6 5 4 4 6 4 1 2 3 6 7 3 4 11 14 7 7 12 15 15 16 18 17 17 17 17 19 19 19 20 21 22 21 21 21 23 23 24 26 26 25 25 26 26 25 24 24 24 25 27 27 27 28 29 29 27 29 32 34 32 29 27 26 25 25 24 23 23 24 23 22 21 21 20 20 21 20 17 17 19 19 16 16 17 15 12 9 8 8 7 7 6 6
4 6 4 5 5 3 7 7 7 6 2 2 1 4 8 5 9 23 20 12 10 10 12 13 13 15 14 14 16 17 20 19 20 23 24 25 24 23 23 23 23 24 25 25 25 26 27 27 27 26 25 26 26 27 27 28 27 26 27 27 28 29 32 35 34 32 30 28 26 25 24 24 25 24 22 21 21 21 22 23 22 20 18 19 20 18 19 21 19 15 12 9 9 8 8 8 7
3 4 1 3 3 3 10 9 7 6 2 3 0 2 6 6 14 24 17 15 15 12 12 13 12 13 13 14 15 18 20 21 22 24 25 25 25 25 24 24 25 25 25 26 27 28 28 28 28 28 27 27 26 26 27 27 27 27 26 27 28 28 29 31 32 31 31 29 27 27 26 26 26 24 23 23 22 22 23 25 25 23 20 20 20 18 20 24 22 19 15 12 11 9 9 10 9
2 2 2 2 2 2 7 8 8 5 3 5 2 1 7 7 5 9 11 14 14 14 14 14 14 15 15 16 16 18 20 21 22 23 24 24 25 25 24 25 25 26 26 27 27 28 29 29 28 28 28 27 27 26 26 26 27 28 28 29 31 30 28 27 27 28 29 29 27 27 27 28 28 26 24 23 24 24 25 26 25 23 22 21 22 19 19 25 26 22 18 14 13 11 11 12 10
1 2 2 3 2 1 2 4 7 4 2 6 4 1 7 9 0 7 10 11 10 11 12 13 14 14 15 16 16 18 20 20 20 22 23 24 25 26 26 26 26 26 26 26 27 28 29 29 28 28 28 27 27 26 26 27 27 28 28 29 32 31 29 27 26 27 28 29 28 27 29 30 29 28 25 24 26 27 27 27 23 22 23 23 25 22 19 26 28 25 19 15 13 11 12 14 12
2 2 3 3 3 3 1 1 3 3 2 5 5 3 5 4 3 7 6 7 9 9 11 12 13 13 14 15 16 18 20 20 20 21 22 22 23 24 25 26 27 27 27 26 26 28 29 29 29 28 28 27 28 27 27 27 28 28 27 29 32 32 30 28 27 28 30 30 29 28 31 33 32 31 29 27 28 28 27 26 23 23 23 23 25 25 23 26 29 27 23 19 14 11 13 15 14
3 3 3 2 3 4 3 1 1 3 1 3 5 6 6 7 8 8 6 6 9 10 12 13 12 13 14 15 17 19 21 21 23 24 23 23 22 21 22 24 25 26 26 26 26 27 28 29 29 28 28 28 29 29 28 28 28 29 29 31 33 33 31 29 28 30 32 32 31 30 32 34 34 33 31 30 30 29 26 26 24 23 23 23 24 26 28 29 31 30 26 21 17 14 14 16 16
2 4 3 3 3 4 3 1 3 5 1 3 5 6 9 10 14 19 18 15 14 15 16 16 16 17 18 19 21 23 24 25 28 29 27 27 26 24 23 22 23 24 24 25 26 27 28 29 29 28 28 29 29 30 29 29 30 32 33 34 34 34 32 31 29 30 34 36 36 35 35 36 35 34 32 32 31 28 27 26 26 24 24 24 25 28 31 32 34 33 28 23 19 17 16 17 17
2 1 1 2 2 3 1 3 2 2 1 4 7 8 9 9 11 16 20 19 18 18 17 18 19 21 23 25 27 28 29 31 32 30 29 30 30 29 27 24 23 23 23 23 24 25 27 29 30 30 30 30 30 31 31 31 32 35 36 36 36 35 33 32 31 30 32 36 39 40 40 40 37 34 32 31 30 27 27 26 26 26 26 26 27 30 32 33 35 33 28 25 21 20 20 19 18
4 3 2 3 2 2 2 3 0 2 1 5 7 8 10 10 9 11 17 19 17 16 16 18 20 22 25 26 29 32 33 33 31 29 30 30 30 30 30 29 27 26 25 25 26 26 26 28 30 30 31 31 32 32 32 32 33 34 36 36 36 36 34 34 33 31 30 33 38 41 42 40 35 33 31 30 28 27 26 26 26 27 28 29 29 31 32 32 34 32 30 28 23 21 21 22 21
3 3 3 3 2 1 3 3 1 2 2 4 6 8 11 10 8 11 15 14 15 17 17 20 23 24 27 27 30 33 33 31 28 27 28 29 30 29 29 31 31 31 31 31 31 29 29 30 30 30 31 32 33 33 33 33 33 33 34 35 35 35 35 34 33 32 31 30 34 39 42 38 33 32 32 29 27 27 26 26 26 26 26 27 31 34 34 32 33 34 34 32 26 22 21 22 22
2 0 1 2 2 1 3 3 0 1 1 4 6 7 11 13 9 11 15 15 20 26 23 24 25 24 25 27 29 33 32 29 26 25 26 27 29 29 29 30 31 32 32 32 32 31 31 32 32 31 31 32 33 34 34 33 33 33 33 33 34 34 35 34 33 32 31 30 31 34 38 37 34 33 32 31 30 28 27 26 26 26 25 25 29 33 31 30 34 36 36 32 26 24 22 22 22
1 2 1 2 2 1 0 1 1 3 3 4 6 6 10 13 10 10 18 25 29 29 25 23 24 24 26 27 29 31 29 25 23 22 24 25 27 28 28 29 29 30 30 31 32 31 32 32 33 33 32 33 34 34 34 33 33 33 32 32 33 35 35 34 34 33 32 31 31 32 35 36 34 32 32 33 32 29 28 28 27 27 27 24 25 28 26 28 33 33 33 31 27 24 25 25 23
4 5 4 4 3 1 2 2 2 4 2 2 6 6 6 8 8 7 11 18 21 22 20 20 23 24 25 28 29 30 27 25 22 20 21 23 25 26 26 25 26 27 27 28 28 29 30 31 33 33 34 34 35 35 34 34 34 35 34 34 35 36 36 35 35 34 33 33 33 33 34 36 36 34 34 34 32 31 30 29 28 27 26 26 26 26 25 27 30 30 30 31 28 25 27 28 25
4 5 4 4 4 2 4 4 4 3 2 1 3 4 5 4 6 8 6 4 8 12 14 17 22 24 24 26 28 27 25 23 22 20 20 22 23 23 24 24 25 25 24 23 23 24 25 27 30 32 33 34 35 36 36 35 36 36 37 37 37 36 36 36 36 35 34 33 33 32 32 35 36 36 36 34 31 31 31 30 29 27 26 26 27 28 27 27 29 30 31 32 30 27 28 29 26
3 3 2 2 2 4 4 3 3 1 3 3 2 0 6 6 8 11 10 9 10 8 9 15 22 23 23 25 24 20 17 16 16 16 16 20 22 23 24 25 25 24 23 21 21 20 21 23 26 29 31 32 33 36 37 37 38 38 38 38 37 36 36 35 35 34 33 31 30 30 30 33 34 35 36 34 31 31 31 30 29 27 26 26 26 27 27 27 28 29 30 31 31 30 31 30 27
2 3 3 1 4 5 3 3 1 2 3 3 4 3 5 7 8 11 11 12 12 9 8 12 19 25 25 22 18 13 10 10 9 9 9 13 17 18 20 20 20 19 18 18 18 18 19 21 23 26 27 29 31 33 36 37 38 38 38 37 36 35 35 34 34 34 32 31 30 29 31 32 32 32 32 33 32 31 32 31 30 30 29 26 26 27 26 25 26 28 30 31 33 34 34 30 27
2 3 2 2 5 4 3 2 1 2 4 3 4 4 3 7 6 7 9 10 10 9 9 10 17 26 22 14 11 9 8 7 5 5 5 7 11 14 14 14 13 13 13 14 15 16 18 20 22 24 26 28 30 31 34 35 36 36 36 36 35 34 34 34 34 33 32 31 31 31 32 32 31 31 31 32 32 33 34 33 32 32 28 26 28 27 25 25 25 28 31 33 35 36 34 30 28
4 4 2 5 5 3 3 2 1 3 3 4 6 6 3 8 5 5 5 6 7 8 8 8 14 17 13 11 11 9 6 4 3 4 5 5 8 9 9 7 7 8 8 8 9 11 14 16 19 22 25 27 28 30 32 33 33 33 34 35 34 33 34 34 34 34 33 32 32 32 32 33 34 33 33 33 33 35 35 33 33 32 28 27 28 26 24 24 26 31 32 34 37 37 34 31 28
6 5 4 5 3 4 3 1 4 2 4 4 7 10 5 5 4 4 4 5 7 6 5 6 4 7 11 11 9 5 3 3 5 6 5 5 5 4 5 5 5 6 5 5 7 9 11 13 16 19 22 25 27 29 30 31 31 31 32 33 32 32 34 35 35 35 34 33 33 32 32 34 36 36 34 33 34 35 35 33 33 32 29 28 28 27 25 23 26 33 34 35 39 38 35 32 29
4 2 4 4 2 4 3 2 4 1 5 2 2 8 7 5 4 3 3 1 4 3 3 3 6 11 11 7 4 4 7 9 10 9 7 6 5 4 6 8 8 8 8 7 9 11 13 14 15 17 20 23 25 27 29 30 29 29 30 31 30 31 34 35 35 35 34 34 34 33 32 35 37 36 35 34 35 38 37 34 34 34 31 31 29 28 27 24 26 33 35 38 40 38 35 33 30
1 2 5 4 0 1 1 1 1 3 6 3 3 1 5 10 8 1 2 3 2 4 4 1 5 8 6 3 3 8 11 13 13 11 10 8 7 8 10 12 13 13 13 12 12 14 16 16 17 19 21 23 25 26 27 28 28 28 29 29 29 30 33 35 35 35 34 34 34 34 33 34 36 35 34 36 39 40 37 34 34 34 32 31 29 28 29 28 27 32 37 39 39 36 34 32 31
4 5 6 5 3 2 3 4 3 4 4 3 4 2 3 8 7 6 7 6 4 6 10 10 5 3 7 8 9 11 14 15 16 15 13 10 9 12 14 16 17 18 17 16 16 18 18 19 19 20 21 23 24 25 26 26 27 27 28 28 28 30 33 36 35 35 35 34 35 34 33 32 34 34 34 35 37 36 33 33 34 33 31 30 30 29 32 32 31 34 39 40 38 35 33 32 32
7 5 5 5 5 4 4 3 3 4 1 3 3 0 3 4 4 3 3 2 4 8 9 11 11 12 14 13 14 17 18 17 18 18 15 12 13 15 16 17 19 20 20 20 19 20 20 20 19 19 20 22 23 24 25 25 26 26 26 27 28 30 33 35 35 36 35 34 34 33 31 30 31 32 32 32 34 33 32 34 35 33 31 31 31 31 34 35 35 36 39 38 36 33 32 32 32
5 3 3 5 4 3 2 2 3 2 1 2 2 3 5 4 8 11 8 10 12 14 13 11 13 15 13 14 20 25 24 20 19 17 16 16 16 17 18 18 17 18 19 20 20 20 20 19 18 18 19 20 21 23 23 24 24 25 25 25 27 30 32 34 35 36 35 34 33 32 30 29 29 30 31 33 35 34 33 34 35 35 33 31 31 32 35 37 37 36 36 35 33 32 32 32 32
3 3 4 4 1 2 2 1 1 4 2 4 3 5 6 4 11 12 9 12 13 13 14 13 15 15 12 18 24 23 21 20 19 18 18 18 17 18 21 20 17 16 17 18 18 18 18 17 16 16 17 17 18 20 21 22 23 22 22 23 26 29 32 34 35 35 34 33 33 32 29 29 29 29 31 33 35 36 37 37 38 37 33 31 31 32 36 38 37 35 34 33 32 33 32 32 33
4 4 4 1 3 2 2 1 2 1 6 4 3 8 6 3 8 5 1 4 6 5 8 12 17 17 15 21 22 17 15 16 17 17 17 17 18 21 24 24 20 17 17 17 17 16 15 15 14 14 14 15 15 17 19 21 21 20 19 20 24 28 30 33 34 33 33 32 33 32 31 31 31 31 32 33 35 38 40 41 39 36 31 30 31 33 37 39 36 34 34 33 33 33 32 32 32
4 2 2 2 1 2 2 3 2 3 5 4 4 8 6 6 10 7 6 6 6 6 7 8 11 14 16 19 18 14 12 13 13 12 13 16 20 24 27 27 22 18 17 16 15 14 14 13 11 11 11 11 11 14 17 19 19 19 19 19 22 25 28 31 32 32 32 32 33 34 34 34 34 33 34 33 34 36 38 40 38 33 30 30 31 34 39 40 37 35 34 34 33 32 31 31 32
2 3 3 1 2 3 4 3 3 3 4 5 5 5 6 9 9 7 8 8 7 9 8 7 9 14 15 13 10 8 10 10 9 9 12 17 21 23 26 27 21 17 16 15 14 13 12 10 8 8 9 9 9 11 14 16 17 17 18 20 22 24 27 29 31 32 33 33 34 35 36 37 35 35 35 34 33 33 36 39 36 32 29 30 31 35 40 41 37 35 35 34 33 32 30 31 31
3 1 2 2 1 2 1 2 2 4 4 4 4 6 8 8 5 5 6 4 5 5 3 3 7 10 7 4 5 8 10 9 7 10 15 19 21 22 23 24 20 17 17 14 13 13 10 8 7 8 10 10 10 11 13 14 15 15 17 19 21 23 26 29 31 32 33 34 35 36 38 38 37 36 36 36 35 33 35 38 35 31 28 28 31 35 40 41 38 36 36 34 33 31 31 31 32
9 7 7 8 5 4 2 4 4 3 2 3 3 5 11 8 3 3 3 2 3 4 7 5 4 3 5 9 11 12 10 7 8 12 18 22 23 22 21 22 20 18 17 14 13 12 9 8 9 10 11 10 9 10 12 14 15 16 17 18 20 22 25 29 31 33 33 34 35 37 38 39 38 37 38 38 37 34 35 36 35 31 28 28 31 36 41 41 39 37 36 35 33 32 33 33 33
Wind_Direction
182 177 173 182 195 219 262 255 292 232 203 94 104 105 86 72 115 133 119 130 100 61 58 68 60 46 54 38 55 66 51 43 57 57 126 144 146 165 154 145 151 148 150 144 145 146 145 145 140 137 136 139 138 137 136 132 130 126 118 114 108 97 86 79 69 59 52 56 60 61 69 67 61 58 57 63 68 70 68 70 81 88 88 88 85 87 85 83 89 92 93 96 96 93 94 96 97
183 181 172 188 208 234 275 196 231 259 173 93 78 87 113 128 133 101 95 93 87 100 92 83 78 71 70 42 34 66 53 53 75 102 132 147 153 167 152 141 146 148 149 145 150 153 151 148 146 145 143 146 144 143 138 133 132 129 121 119 119 106 95 84 71 59 55 61 68 72 73 66 60 57 57 62 69 74 75 75 81 87 91 92 89 93 96 93 95 96 96 96 96 95 97 99 98
180 182 162 179 263 261 285 228 221 273 139 101 74 109 150 132 91 76 78 87 100 111 103 95 84 71 54 15 13 51 75 68 76 108 133 148 160 166 156 142 146 149 149 152 157 158 155 152 151 150 147 148 147 145 139 136 134 132 131 131 130 115 102 87 71 61 62 68 76 79 74 66 59 56 57 61 67 74 78 81 84 86 88 93 96 100 105 103 99 99 100 98 97 98 100 99 99
179 185 161 145 301 268 270 238 240 314 50 101 100 152 156 104 92 83 86 94 107 112 106 103 85 68 36 21 10 51 100 91 75 111 139 150 171 170 163 147 148 153 153 160 166 165 160 155 154 152 150 150 149 146 142 141 137 139 145 144 142 125 108 92 75 66 70 76 83 84 75 68 60 56 59 62 67 74 79 82 85 86 82 83 88 90 95 102 100 98 99 98 99 101 101 100 100
174 183 175 152 294 276 282 276 286 25 24 45 106 151 121 100 103 100 97 98 104 102 109 107 91 98 59 41 11 58 102 104 97 126 148 153 180 174 163 148 149 156 156 167 173 174 168 162 159 156 154 151 151 151 150 147 143 149 153 153 152 137 119 100 83 74 77 84 87 85 75 67 60 57 61 64 66 73 80 86 91 95 93 89 88 89 89 96 99 96 97 99 101 102 101 102 102
161 178 226 275 270 290 306 276 18 82 6 355 100 119 97 104 114 112 109 101 95 103 109 91 77 104 92 79 54 97 119 124 126 153 162 162 177 176 162 149 147 154 158 172 179 181 178 172 169 166 160 153 155 156 156 154 149 154 159 160 156 145 131 111 93 86 84 89 90 85 76 66 61 58 60 64 65 68 75 84 93 100 105 105 105 107 102 98 100 99 99 100 101 101 100 100 101
157 164 234 277 272 269 270 257 65 87 342 355 84 111 95 107 120 123 126 114 101 111 103 86 93 87 108 123 105 117 148 172 162 173 182 180 179 174 162 147 144 155 160 178 183 182 185 183 178 176 167 157 159 160 162 160 156 162 165 164 158 150 140 123 106 103 98 93 94 90 79 66 60 59 61 63 63 66 69 76 84 91 99 103 108 112 106 100 100 100 100 100 99 99 98 97 96
162 173 218 272 288 204 260 339 59 73 356 14 48 73 106 120 131 138 144 134 134 128 122 108 107 58 111 122 107 150 186 200 219 201 197 195 185 172 158 145 149 161 163 185 189 184 188 187 185 185 176 165 162 164 169 166 164 170 167 164 160 155 147 132 117 115 109 98 100 97 85 70 60 60 62 63 63 65 68 72 76 80 89 92 96 100 100 99 98 98 98 99 97 96 94 94 92
172 242 241 254 288 229 265 84 88 89 109 93 58 67 110 133 143 142 129 119 131 129 133 135 118 89 113 105 101 141 200 199 230 209 199 191 184 175 158 148 158 167 171 191 195 191 193 189 188 189 183 174 168 167 172 170 169 174 168 165 162 161 155 137 127 123 114 100 101 100 92 78 64 62 64 65 64 66 70 73 76 80 86 90 93 97 99 97 95 94 95 95 93 91 90 90 90
210 255 278 322 278 236 233 112 102 105 106 111 115 115 121 141 149 144 133 119 133 120 112 129 140 127 93 114 120 157 212 190 205 186 185 171 172 175 162 153 161 175 182 195 200 200 199 191 190 190 188 181 175 170 172 176 175 177 173 168 164 166 167 150 140 133 124 105 102 104 98 87 72 67 68 69 68 71 75 78 82 84 88 92 95 97 97 96 94 93 92 90 88 87 87 88 88
238 233 248 321 262 239 218 110 106 113 109 105 121 137 140 148 152 147 133 117 129 117 114 148 152 171 225 120 130 173 189 193 200 182 180 172 171 172 167 161 165 179 188 199 206 205 198 193 192 191 190 188 185 176 174 179 178 182 179 174 170 170 175 169 158 148 144 127 115 115 109 97 83 76 76 78 73 74 79 83 87 90 93 94 96 96 96 95 94 92 88 85 84 85 86 86 87
228 219 191 279 266 283 22 88 110 111 124 142 130 145 154 153 157 153 133 121 138 131 136 166 129 159 213 111 139 176 180 198 199 190 185 180 179 173 173 173 170 176 187 201 207 208 200 197 196 192 194 193 192 187 183 182 177 183 182 178 177 176 181 180 173 169 162 155 141 128 118 103 92 88 84 85 80 77 81 87 91 96 100 99 99 98 98 97 95 91 86 82 82 83 84 85 87
232 239 175 230 272 7 28 42 101 118 155 166 143 155 159 159 171 160 151 141 149 151 144 151 129 160 182 102 143 173 179 201 199 193 188 186 188 183 183 181 177 179 187 199 205 207 204 202 202 198 198 197 197 197 195 191 182 182 183 182 182 181 185 189 186 183 178 175 170 149 131 110 99 100 94 90 87 82 82 90 96 99 104 104 104 103 102 101 97 92 86 83 81 81 82 84 87
252 305 259 215 275 359 42 65 119 163 169 127 132 153 161 167 182 159 158 150 130 133 136 147 153 174 155 118 148 170 179 204 200 191 193 193 194 194 197 188 183 186 190 200 206 208 206 204 206 204 203 202 200 201 201 199 193 189 187 186 188 185 187 195 195 191 187 188 192 181 156 128 117 114 106 100 97 89 84 92 101 104 107 108 109 108 107 103 99 94 88 86 83 82 82 85 90
251 325 317 261 310 343 52 104 144 256 108 110 136 153 156 161 175 158 159 130 106 128 137 159 187 167 22 97 158 178 191 206 192 189 199 198 197 201 208 198 189 192 193 201 209 212 210 208 210 208 207 209 206 205 204 203 200 199 196 193 195 193 193 198 200 199 195 196 204 202 192 168 154 144 129 119 114 106 92 94 106 114 113 112 112 112 111 107 102 96 91 88 84 83 83 86 94
232 320 323 296 302 211 183 140 71 16 120 141 149 155 150 147 162 161 150 104 118 145 147 165 190 184 42 99 152 187 209 204 188 193 202 201 201 204 210 204 197 200 199 203 210 213 213 214 215 212 210 212 211 209 209 207 204 205 205 202 202 200 200 204 206 207 203 203 206 207 214 204 192 186 171 149 137 132 115 103 107 120 125 121 118 117 116 112 107 100 94 90 86 84 83 87 94
217 294 296 265 247 186 172 165 135 139 129 137 159 163 153 147 165 179 181 143 134 151 155 169 194 207 220 149 162 200 218 197 193 198 204 205 205 205 207 205 202 205 207 211 216 216 214 214 215 215 213 211 211 210 212 212 208 209 210 208 208 206 206 210 211 212 210 208 205 207 219 222 216 208 194 185 171 158 144 124 114 119 131 136 132 128 123 116 109 102 96 92 89 86 85 87 91
191 206 207 239 236 211 177 132 102 139 144 153 171 176 168 153 172 184 183 185 182 171 170 188 207 213 227 224 201 217 210 196 199 204 210 210 210 210 208 205 205 208 211 216 221 223 217 213 214 215 214 210 209 209 211 214 212 213 214 212 212 212 213 214 215 215 216 213 207 206 216 224 223 218 210 196 185 184 177 155 140 134 138 148 152 147 138 129 117 105 99 94 91 90 90 91 93
210 208 216 242 230 12 26 59 56 59 125 157 170 190 191 157 167 175 183 192 189 198 196 193 204 215 229 231 228 232 219 203 205 211 216 216 218 217 215 212 211 213 216 218 221 226 224 217 216 217 217 213 212 209 209 215 216 215 216 216 216 216 216 218 218 217 218 217 213 211 214 222 222 218 216 206 197 204 204 185 168 160 158 159 168 170 160 150 135 119 107 97 95 94 92 93 96
226 247 214 255 66 42 36 58 63 38 62 143 156 191 192 138 152 169 197 199 184 199 202 192 196 208 227 232 231 231 223 213 209 215 220 222 225 224 224 222 219 220 222 222 223 228 229 225 222 222 221 217 215 210 210 216 217 217 219 220 219 218 218 219 221 219 219 221 219 217 215 218 220 218 214 213 213 215 217 204 192 187 183 179 183 186 178 168 153 137 123 109 102 97 93 92 94
198 227 179 339 348 37 44 56 73 61 47 98 130 170 186 138 146 167 189 216 204 208 207 208 209 209 220 226 227 227 224 221 214 217 222 226 229 229 231 231 230 229 227 226 226 228 231 231 228 228 227 222 217 215 215 218 219 220 221 221 221 221 221 221 222 221 218 218 221 220 217 213 216 220 216 216 221 223 229 227 213 202 200 199 196 199 192 179 166 149 137 126 113 97 94 96 93
177 140 84 28 358 35 50 56 85 81 62 95 120 149 163 148 164 188 195 224 209 175 186 204 213 209 212 217 220 219 220 224 223 223 225 228 232 233 235 235 235 232 231 232 231 232 233 234 232 231 233 230 225 222 220 219 220 222 222 221 221 223 226 226 223 223 220 217 219 219 214 210 215 221 220 221 224 231 236 236 229 213 208 213 210 210 202 189 177 160 148 140 128 109 97 104 102
217 110 78 49 27 66 55 65 106 85 66 92 115 123 125 143 209 223 218 228 215 123 125 185 199 195 198 208 214 215 221 228 231 233 233 235 236 236 236 236 239 238 234 235 236 236 236 236 236 235 235 235 232 226 221 220 221 222 222 221 222 226 230 230 226 225 224 220 221 219 213 212 217 219 220 225 228 234 238 235 234 225 214 218 222 217 211 202 188 170 158 150 148 147 125 120 120
219 187 92 61 59 86 74 106 150 113 63 29 31 338 205 194 238 235 226 229 229 244 263 262 261 238 182 203 215 224 235 239 240 241 240 241 243 243 240 233 236 243 239 237 238 238 239 237 238 240 238 237 234 227 218 220 224 222 221 221 221 225 228 230 229 227 226 223 225 223 217 220 222 217 220 229 232 232 236 236 233 228 220 221 227 224 222 216 195 176 164 153 161 177 166 144 137
241 157 112 105 80 92 95 111 163 150 44 311 272 268 260 228 244 268 245 236 232 240 251 258 260 250 232 228 236 242 245 247 246 243 239 240 241 241 241 232 228 236 241 240 240 242 242 236 237 241 242 238 236 230 219 219 226 225 223 222 219 219 224 228 228 228 229 227 227 225 222 223 223 221 223 231 236 232 231 236 236 229 223 224 228 229 232 224 196 173 165 156 169 187 179 157 145
216 115 119 130 106 107 110 111 139 138 199 272 246 256 245 215 253 273 256 251 245 240 242 248 254 254 245 240 244 251 252 252 251 249 246 240 236 235 238 235 227 231 239 242 242 245 245 239 236 239 242 241 238 235 226 222 227 229 229 227 222 219 221 224 225 227 229 228 229 229 226 225 226 226 226 231 236 233 229 233 236 230 227 228 229 236 240 231 207 191 191 178 179 193 188 163 148
121 114 117 124 121 133 133 134 140 135 177 191 264 276 254 195 164 265 258 260 247 231 231 238 246 252 253 251 248 250 252 254 256 254 249 242 237 235 236 236 232 231 238 243 243 243 245 244 241 240 240 239 237 238 235 229 228 230 233 230 225 223 223 223 224 225 225 226 229 232 229 226 229 227 225 230 232 230 229 229 232 231 231 231 231 241 247 236 216 205 216 202 185 199 197 179 161
130 123 112 123 141 151 160 163 161 173 174 179 281 303 283 197 150 251 246 240 236 215 221 232 242 250 255 256 252 250 249 250 253 250 249 248 246 243 241 241 239 237 240 245 246 243 243 244 244 242 240 237 236 237 236 234 229 228 232 232 226 224 225 228 229 227 225 225 227 229 229 228 229 226 226 230 227 227 229 228 231 233 234 232 231 243 248 234 217 206 217 205 185 201 203 196 180
144 152 130 152 165 169 188 185 178 200 173 128 342 311 273 217 220 254 246 229 233 212 217 227 237 250 253 253 248 248 251 249 245 246 251 255 255 253 250 250 248 245 245 247 247 244 244 244 244 243 241 239 238 237 236 236 233 228 230 235 233 227 225 229 232 230 225 226 229 231 234 235 230 227 230 230 228 229 229 230 233 233 233 231 230 240 244 232 217 210 216 201 186 199 208 211 197
166 202 252 159 174 216 193 179 174 196 139 133 108 307 263 228 233 252 243 222 226 213 221 227 233 247 253 257 251 247 252 252 250 250 254 256 258 258 255 253 251 250 248 246 246 246 245 245 244 244 242 241 241 241 239 237 235 233 232 237 241 236 229 229 229 228 225 225 230 234 237 237 230 225 228 232 236 236 233 235 236 231 230 232 232 240 244 233 219 212 214 202 189 195 210 217 206
167 171 306 204 199 225 174 159 165 186 154 156 156 264 263 284 266 235 208 205 214 213 225 233 239 244 248 254 254 251 253 257 260 259 258 257 258 259 258 256 252 250 249 247 246 247 248 247 246 245 243 243 242 241 241 239 237 235 234 237 243 244 240 234 227 224 227 227 228 232 234 233 229 226 227 233 241 243 242 239 236 232 232 237 236 237 244 235 220 213 212 201 191 194 208 216 210
189 131 276 238 217 243 136 157 169 175 181 170 166 233 261 274 216 147 177 192 203 218 234 239 242 243 242 244 250 256 259 263 266 263 261 259 258 257 258 257 255 253 250 249 248 247 248 248 247 245 244 243 242 242 241 239 238 237 235 234 240 245 246 242 230 223 228 232 230 231 232 229 229 231 230 235 241 244 244 237 235 237 238 241 236 230 238 236 222 213 208 203 202 200 207 215 213
213 173 242 216 196 196 164 269 192 135 137 184 206 253 279 265 166 147 170 203 214 225 245 249 249 247 243 242 246 255 260 262 264 264 264 263 261 259 258 257 257 256 254 252 249 247 248 248 247 245 243 242 241 241 239 237 237 237 235 233 237 242 245 245 236 224 223 229 230 230 231 229 230 234 235 239 245 247 242 234 235 241 241 243 239 233 236 233 225 219 209 203 209 211 211 217 217
205 193 245 223 181 196 179 323 240 155 177 242 223 234 261 274 277 269 257 248 228 223 241 252 253 248 244 243 243 249 252 256 261 264 265 267 268 265 260 258 257 257 255 253 251 249 248 248 248 246 243 241 240 240 239 237 235 233 234 234 238 242 244 246 240 226 221 225 226 223 225 227 229 233 238 243 247 246 239 234 235 238 240 240 238 238 236 229 223 221 213 202 205 215 218 219 220
191 184 222 224 208 240 231 115 181 180 193 266 238 240 249 259 275 276 272 262 238 230 240 247 249 248 249 250 248 250 250 252 260 263 264 265 266 266 263 258 255 254 253 253 252 250 249 249 248 246 244 241 240 241 239 236 232 231 233 235 238 242 244 245 243 232 224 224 226 225 222 225 229 234 239 243 246 243 237 235 233 232 237 239 236 235 233 228 221 216 210 203 202 210 217 219 222
27 137 189 248 244 256 179 109 171 187 179 239 240 251 254 253 260 268 272 266 247 239 240 239 241 245 248 251 252 252 250 252 258 261 261 262 263 264 263 259 254 252 250 250 251 251 250 249 249 247 245 242 241 241 239 236 232 232 235 237 239 241 242 244 244 240 232 227 229 232 231 232 234 235 236 241 245 238 231 233 232 231 236 239 238 232 230 230 222 213 208 207 205 205 209 217 225
12 7 359 318 328 350 97 108 354 7 330 243 242 253 261 261 258 263 269 271 263 253 249 246 243 244 246 249 252 254 254 256 259 259 257 259 261 261 261 258 255 251 248 249 251 253 253 252 251 250 247 245 244 243 242 240 238 237 239 242 243 243 243 244 244 244 239 231 228 231 237 239 236 233 232 237 238 228 224 230 233 235 236 238 239 232 230 229 221 214 211 209 211 213 213 216 225
24 6 344 324 268 243 70 87 203 46 40 265 272 279 273 265 261 266 265 266 263 254 248 248 247 247 248 250 254 259 261 261 261 258 254 254 256 257 258 257 256 254 254 254 254 255 255 254 253 252 251 249 248 247 246 244 244 244 246 247 249 248 246 246 246 245 242 237 230 228 234 239 236 231 229 231 228 222 224 231 235 237 233 235 237 229 225 223 217 215 212 207 208 216 222 224 229
60 106 322 313 256 154 57 45 3 88 128 268 294 298 283 276 265 261 258 253 255 252 245 246 247 247 249 249 253 259 261 261 259 256 252 250 252 254 256 257 258 257 257 256 255 253 251 252 252 252 252 251 251 250 249 248 248 248 249 250 251 249 247 245 245 245 241 237 232 227 229 233 232 231 229 227 225 225 228 233 237 235 227 230 233 223 218 220 220 217 212 208 208 211 217 225 236
182 193 201 254 238 132 23 321 287 219 210 276 308 301 281 280 271 254 247 243 249 255 253 253 252 250 250 250 252 255 257 258 257 255 252 250 251 253 256 258 259 258 257 256 254 251 249 250 252 252 252 252 252 253 252 250 249 249 248 248 248 248 245 243 242 241 238 235 231 227 227 227 227 229 227 225 225 227 229 232 235 232 225 227 227 221 220 222 220 216 211 211 215 217 216 219 229
220 204 201 227 243 109 98 41 304 245 226 329 326 308 274 270 269 266 252 238 242 253 254 255 254 251 251 252 254 255 255 255 254 252 252 252 252 255 259 261 261 259 259 259 258 256 253 252 252 252 251 251 252 253 254 250 248 247 246 245 244 244 242 240 239 238 236 234 231 227 225 224 224 225 222 223 227 228 227 230 231 228 225 227 229 227 227 226 220 219 219 218 224 231 226 223 223
240 214 203 236 277 30 73 40 357 339 324 305 2 331 289 295 290 284 297 267 239 244 243 244 248 252 253 255 258 260 259 257 254 250 248 251 255 258 260 260 261 262 262 263 263 260 256 253 251 251 251 252 252 253 253 251 248 247 247 246 245 244 243 241 239 238 237 235 233 228 223 222 223 222 223 228 231 227 226 227 224 222 223 226 231 229 223 223 224 226 228 224 227 234 231 228 226
261 261 332 329 9 64 71 31 24 12 289 250 128 328 277 300 292 277 285 281 260 245 236 241 248 254 254 255 260 266 270 266 260 255 247 247 253 257 259 261 262 264 265 263 262 259 257 253 251 251 252 252 252 252 253 251 249 248 248 248 248 247 246 245 243 240 238 236 233 229 223 222 224 224 226 229 228 224 224 224 219 219 222 224 227 226 220 222 228 230 230 226 225 229 230 230 229
241 257 310 350 87 93 102 68 135 228 308 270 176 171 268 279 263 255 258 264 265 254 245 249 251 254 254 254 256 260 266 264 260 263 251 244 251 256 260 263 264 263 263 261 259 258 255 253 252 251 252 252 251 252 252 251 251 249 249 249 249 248 246 245 243 239 238 234 229 226 223 222 224 224 224 223 220 221 223 222 219 216 219 223 225 226 225 226 230 231 229 224 222 226 230 233 231
229 237 283 99 97 96 122 99 240 291 0 299 205 150 277 271 240 234 239 250 264 251 237 237 242 249 251 242 228 226 234 247 257 267 264 254 256 261 264 266 266 263 262 262 261 259 256 254 254 252 253 253 252 252 252 253 253 252 251 251 250 249 245 242 240 238 237 232 225 224 222 220 221 219 217 217 218 222 222 220 218 215 219 227 228 227 227 229 232 230 224 219 219 224 231 235 232
198 197 91 81 86 68 73 82 36 17 339 256 194 156 255 276 241 196 211 232 248 242 226 227 236 239 228 192 185 201 217 233 271 281 289 280 266 269 274 271 266 263 264 266 265 263 260 259 257 255 255 256 255 255 254 254 254 253 252 251 250 248 244 240 238 236 234 229 225 224 221 217 217 216 215 217 221 222 219 216 216 218 224 228 227 227 229 231 230 226 222 220 222 224 230 235 233
156 160 92 74 64 46 39 37 73 45 285 249 182 176 187 292 272 167 180 216 213 217 225 229 207 166 165 169 172 193 239 286 295 288 293 290 270 264 273 274 268 262 259 263 270 271 268 265 263 261 260 259 259 258 256 255 254 254 253 251 250 247 243 241 240 237 233 228 225 225 221 215 215 218 220 221 224 222 217 216 217 220 223 225 227 230 232 236 230 222 221 224 224 225 230 236 232
128 129 113 87 21 27 24 355 60 128 256 292 204 188 179 242 273 100 93 163 171 198 234 193 143 138 148 162 196 267 291 295 290 281 278 271 259 257 267 271 265 259 258 264 277 279 275 273 271 269 265 263 262 261 260 258 255 254 253 251 249 244 241 241 241 239 235 230 227 225 222 217 218 222 223 222 223 222 219 218 217 218 220 221 227 230 231 237 232 223 223 225 222 225 233 235 229
87 146 131 114 355 16 353 255 141 217 238 291 326 270 207 239 256 288 319 308 308 283 278 237 130 145 154 175 276 293 291 289 284 278 274 265 262 274 275 272 266 261 259 263 275 279 276 274 272 268 266 265 266 266 265 263 260 257 254 253 249 243 239 240 241 240 237 233 229 226 224 222 221 222 223 222 221 219 218 220 219 218 219 222 229 234 233 233 232 226 225 224 224 229 233 230 226
190 170 146 151 166 187 238 219 213 236 238 294 333 11 255 260 272 260 246 258 312 308 276 268 249 232 272 278 283 289 283 284 286 281 277 274 283 292 286 277 269 262 259 261 271 276 275 274 271 269 268 267 269 271 270 268 266 262 258 255 250 242 238 238 240 239 238 236 232 228 227 228 227 223 221 220 219 218 218 220 220 219 224 228 233 238 236 232 231 230 228 228 229 232 232 227 224
199 188 161 178 172 183 210 188 214 232 213 304 317 309 209 230 269 254 220 250 326 330 295 263 250 258 273 276 281 286 283 287 288 282 285 295 304 306 298 288 277 268 264 265 269 272 273 274 273 273 273 272 273 273 273 273 271 268 264 258 249 241 238 238 239 239 239 237 233 230 229 231 232 227 220 220 223 226 224 220 220 225 231 233 234 239 237 230 230 232 231 232 233 231 229 227 225
216 197 187 218 199 178 190 169 182 152 43 291 229 241 227 221 276 276 269 270 270 272 271 257 248 254 266 278 286 288 285 286 285 284 294 305 309 309 304 297 288 277 269 265 267 270 273 276 277 278 277 275 275 275 276 275 274 274 271 262 248 240 239 238 238 239 238 236 233 230 228 230 233 230 224 223 225 228 227 225 226 230 233 234 235 237 236 232 231 233 232 231 231 230 229 228 226
203 170 203 220 137 126 188 265 68 100 267 260 184 260 284 311 293 275 246 257 263 254 246 240 246 253 263 274 277 279 279 279 279 287 301 308 311 311 305 297 286 278 269 261 263 268 274 280 282 282 280 278 279 280 280 280 279 278 276 263 246 239 240 240 239 239 238 235 231 228 227 228 229 228 226 226 227 229 229 230 231 230 231 236 237 236 235 235 234 232 232 231 231 231 229 227 227
130 171 207 126 44 23 143 221 355 126 247 260 188 249 278 302 283 290 30 296 293 260 222 225 242 245 247 260 264 265 274 280 282 293 306 312 315 312 305 296 282 271 263 258 261 267 275 281 282 282 281 284 288 287 285 285 285 281 276 265 249 242 242 242 241 241 239 234 228 225 225 225 225 226 228 230 233 234 233 230 229 230 234 240 241 237 234 235 234 230 231 232 231 230 227 225 225
112 174 255 105 132 249 143 174 234 207 237 266 249 253 261 239 247 280 326 314 300 273 233 217 229 225 231 250 257 260 272 280 285 297 312 320 320 314 305 295 282 265 255 253 259 265 267 267 271 278 282 285 292 294 293 292 292 286 277 269 257 249 246 244 242 242 240 234 228 225 225 226 226 228 229 229 232 235 234 231 230 233 240 242 242 239 233 232 232 229 228 229 228 226 224 223 223
47 359 335 95 157 188 175 187 193 182 219 249 270 275 255 238 244 270 273 261 262 261 247 231 211 207 224 247 255 263 273 274 284 311 333 336 327 314 299 287 274 257 249 251 254 253 252 254 264 276 277 276 285 297 300 300 301 296 286 276 266 257 250 246 242 241 241 237 231 227 225 226 228 229 228 227 228 233 235 233 232 235 241 241 239 237 233 231 230 228 227 226 224 221 220 220 221
185 240 230 196 142 115 166 260 196 175 193 228 257 269 262 251 233 238 245 252 272 264 239 225 187 183 214 278 297 282 273 273 300 336 348 346 331 312 289 271 260 250 248 249 245 241 241 250 261 265 266 266 273 286 295 298 301 300 295 285 274 264 255 248 244 241 241 239 235 230 226 225 227 228 227 227 229 233 236 234 231 235 240 242 240 236 232 231 229 227 225 223 221 220 219 219 220
190 194 196 197 186 147 184 250 226 178 178 218 222 258 271 263 172 207 269 15 359 50 73 63 56 36 338 331 314 292 277 290 333 351 352 347 331 308 278 257 251 248 247 244 239 238 243 251 256 257 260 263 270 281 289 292 294 294 293 289 278 269 259 251 246 244 241 239 237 233 228 225 227 228 228 228 229 234 237 233 231 234 237 240 241 236 232 231 229 226 223 221 220 219 219 219 220